Location: Lombard
(41.8800°N, 88.0080°W)
Time: 22:24:57
(UTC-06:00)

Tiros 1 - Visible Passes

Search period start: 07 February 2023 00:00
Search period end: 17 February 2023 00:00
Orbit: 629 x 662 km, 48.4° (Epoch: 07 February)

Date Brightness Start Highest point End Pass type
(mag) Time Alt. Az. Time Alt. Az. Time Alt. Az.
07 Feb 7.9 04:37:09 45° SSE 04:37:09 45° SSE 04:40:34 10° SE visible
07 Feb 9.2 06:15:19 10° WSW 06:17:23 13° SW 06:19:27 10° SSW visible
08 Feb 8.3 05:01:54 29° SSW 05:01:54 29° SSW 05:05:14 10° SSE visible
09 Feb 10.0 03:49:04 11° SE 03:49:04 11° SE 03:49:15 10° SE visible
09 Feb 9.1 05:26:44 14° SW 05:26:44 14° SW 05:28:35 10° SSW visible
10 Feb 9.8 04:14:00 10° SSE 04:14:00 10° SSE 04:14:02 10° SSE visible
12 Feb 9.0 19:09:08 10° S 19:10:50 17° SSE 19:10:50 17° SSE visible
13 Feb 8.4 19:33:12 10° SSW 19:35:49 29° S 19:35:49 29° S visible
14 Feb 8.7 18:18:04 10° S 18:21:10 18° SE 18:23:03 14° ESE visible
14 Feb 8.5 19:58:10 10° WSW 20:00:42 32° SW 20:00:42 32° SW visible
15 Feb 7.7 18:41:56 10° SSW 18:46:12 38° SE 18:47:50 28° E visible
15 Feb 9.3 20:23:41 10° WSW 20:25:29 23° W 20:25:29 23° W visible
16 Feb 7.0 19:06:49 10° SW 19:11:26 76° SSE 19:12:32 51° ENE visible
16 Feb 10.0 20:49:26 10° W 20:50:10 14° W 20:50:10 14° W visible
